| time (UTC) | temp F | wind direction | speed knots | gust knots | rain 1hr in | rain 24hr in | rain mn in | humidity % | barometer mb |
| 20260505191556 | 56 | 21 | 1.7 | 5.2 | 0.00 | 0.00 | 0.00 | 81 | 1017.0 |
| 20260505190110 | 55 | 234 | 2.6 | 5.2 | 0.00 | 0.00 | 0.00 | 81 | 1016.9 |
| 20260505184604 | 55 | 18 | 0.0 | 3.5 | 0.00 | 0.00 | 0.00 | 84 | 1016.9 |
| 20260505183052 | 54 | 134 | 0.9 | 3.5 | 0.00 | 0.00 | 0.00 | 86 | 1017.1 |
| 20260505181549 | 54 | 0 | 0.9 | 2.6 | 0.00 | 0.00 | 0.00 | 86 | 1016.9 |
| 20260505180056 | 53 | 267 | 2.6 | 4.3 | 0.00 | 0.00 | 0.00 | 86 | 1016.8 |
| 20260505174550 | 53 | 0 | 0.9 | 4.3 | 0.00 | 0.00 | 0.00 | 87 | 1016.8 |
| 20260505173053 | 53 | 208 | 1.7 | 4.3 | 0.00 | 0.00 | 0.00 | 87 | 1016.6 |
| 20260505171553 | 52 | 264 | 0.9 | 2.6 | 0.00 | 0.00 | 0.00 | 87 | 1016.5 |
| 20260505170108 | 52 | 275 | 1.7 | 3.5 | 0.00 | 0.00 | 0.00 | 88 | 1016.5 |
| 20260505164549 | 53 | 226 | 0.9 | 4.3 | 0.00 | 0.00 | 0.00 | 87 | 1016.4 |
| 20260505163102 | 52 | 187 | 2.6 | 6.1 | 0.00 | 0.00 | 0.00 | 87 | 1016.4 |
| 20260505161552 | 52 | 228 | 1.7 | 2.6 | 0.00 | 0.00 | 0.00 | 88 | 1016.2 |
| 20260505153104 | 51 | 173 | 1.7 | 4.3 | 0.00 | 0.00 | 0.00 | 90 | 1016.1 |
| 20260505151554 | 51 | 236 | 1.7 | 6.1 | 0.00 | 0.00 | 0.00 | 90 | 1016.1 |
| 20260505150112 | 51 | 192 | 1.7 | 6.1 | 0.00 | 0.00 | 0.00 | 90 | 1016.1 |
| 20260505140104 | 51 | 202 | 1.7 | 6.1 | 0.00 | 0.00 | 0.00 | 90 | 1015.4 |
| 20260505124548 | 50 | 169 | 2.6 | 5.2 | 0.00 | 0.00 | 0.00 | 90 | 1015.1 |
| 20260505123106 | 50 | 173 | 2.6 | 6.1 | 0.00 | 0.00 | 0.00 | 89 | 1014.9 |
| 20260505121553 | 51 | 210 | 2.6 | 5.2 | 0.00 | 0.00 | 0.00 | 89 | 1015.0 |
| 20260505120053 | 51 | 194 | 0.9 | 3.5 | 0.00 | 0.00 | 0.00 | 89 | 1015.0 |
| 20260505114600 | 50 | 212 | 1.7 | 3.5 | 0.00 | 0.00 | 0.00 | 89 | 1014.8 |
| 20260505113054 | 51 | 195 | 2.6 | 5.2 | 0.00 | 0.00 | 0.00 | 89 | 1014.9 |
| 20260505111559 | 51 | 211 | 2.6 | 5.2 | 0.00 | 0.00 | 0.00 | 88 | 1014.9 |
| 20260505101553 | 51 | 215 | 1.7 | 5.2 | 0.00 | 0.00 | 0.00 | 88 | 1014.4 |
| 20260505100054 | 51 | 198 | 1.7 | 7.0 | 0.00 | 0.00 | 0.00 | 88 | 1014.4 |
| 20260505094552 | 51 | 190 | 1.7 | 6.1 | 0.00 | 0.00 | 0.00 | 89 | 1014.4 |
| 20260505093050 | 50 | 184 | 3.5 | 5.2 | 0.00 | 0.00 | 0.00 | 89 | 1014.3 |
| 20260505091551 | 50 | 194 | 2.6 | 5.2 | 0.00 | 0.00 | 0.00 | 88 | 1014.2 |
| 20260505090106 | 50 | 200 | 1.7 | 5.2 | 0.00 | 0.00 | 0.00 | 88 | 1014.0 |
| 20260505084548 | 51 | 216 | 1.7 | 5.2 | 0.00 | 0.00 | 0.00 | 88 | 1014.0 |
| 20260505083046 | 51 | 213 | 3.5 | 7.0 | 0.00 | 0.00 | 0.00 | 87 | 1014.1 |
| 20260505081552 | 52 | 202 | 1.7 | 4.3 | 0.00 | 0.00 | 0.00 | 86 | 1013.8 |
| 20260505080053 | 52 | 192 | 1.7 | 4.3 | 0.00 | 0.00 | 0.00 | 86 | 1013.8 |
| 20260505074548 | 52 | 213 | 1.7 | 5.2 | 0.00 | 0.00 | 0.00 | 85 | 1013.8 |
| 20260505073057 | 52 | 177 | 2.6 | 7.0 | 0.00 | 0.00 | 0.00 | 85 | 1013.5 |
| 20260505071555 | 53 | 211 | 4.3 | 8.7 | 0.00 | 0.00 | 0.00 | 84 | 1013.4 |
| 20260505070059 | 53 | 207 | 4.3 | 7.8 | 0.00 | 0.00 | 0.00 | 84 | 1013.4 |
| 20260505064556 | 54 | 214 | 4.3 | 8.7 | 0.00 | 0.00 | 0.00 | 84 | 1013.1 |
| 20260505063102 | 54 | 189 | 4.3 | 8.7 | 0.00 | 0.00 | 0.00 | 83 | 1013.0 |
| 20260505061550 | 55 | 197 | 4.3 | 7.0 | 0.00 | 0.00 | 0.00 | 82 | 1012.9 |
| 20260505060057 | 56 | 205 | 3.5 | 9.6 | 0.00 | 0.00 | 0.00 | 81 | 1012.7 |
| 20260505054557 | 57 | 217 | 2.6 | 6.1 | 0.00 | 0.00 | 0.00 | 79 | 1012.7 |
| 20260505053056 | 58 | 209 | 2.6 | 5.2 | 0.00 | 0.00 | 0.00 | 78 | 1012.8 |
| 20260505051551 | 59 | 214 | 2.6 | 5.2 | 0.00 | 0.00 | 0.00 | 78 | 1012.6 |
| 20260505050126 | 60 | 207 | 0.9 | 2.6 | 0.00 | 0.00 | 0.00 | 78 | 1012.5 |
| 20260505041604 | 62 | 202 | 2.6 | 6.1 | 0.00 | 0.00 | 0.00 | 75 | 1011.8 |
| 20260505040101 | 63 | 219 | 2.6 | 6.1 | 0.00 | 0.00 | 0.00 | 75 | 1011.6 |
| 20260505034551 | 63 | 204 | 3.5 | 7.0 | 0.00 | 0.00 | 0.00 | 76 | 1011.4 |
| 20260505033051 | 64 | 208 | 4.3 | 12.2 | 0.00 | 0.00 | 0.00 | 75 | 1011.2 |
| 20260505031559 | 64 | 221 | 3.5 | 7.0 | 0.00 | 0.00 | 0.00 | 75 | 1011.1 |
| 20260505030053 | 64 | 210 | 3.5 | 8.7 | 0.00 | 0.00 | 0.00 | 74 | 1011.0 |
| 20260505024555 | 65 | 186 | 3.5 | 10.4 | 0.00 | 0.00 | 0.00 | 73 | 1011.0 |
| 20260505023054 | 65 | 204 | 3.5 | 7.8 | 0.00 | 0.00 | 0.00 | 72 | 1010.9 |
| 20260505021555 | 66 | 212 | 3.5 | 9.6 | 0.00 | 0.00 | 0.00 | 71 | 1010.9 |
| 20260505020053 | 66 | 213 | 4.3 | 7.8 | 0.00 | 0.00 | 0.00 | 70 | 1010.9 |
| 20260505014605 | 66 | 231 | 4.3 | 7.8 | 0.00 | 0.00 | 0.00 | 70 | 1010.8 |
| 20260505013052 | 67 | 211 | 4.3 | 8.7 | 0.00 | 0.00 | 0.00 | 69 | 1011.0 |
| 20260505011553 | 67 | 241 | 4.3 | 8.7 | 0.00 | 0.00 | 0.00 | 68 | 1011.2 |
| 20260505010057 | 68 | 205 | 4.3 | 8.7 | 0.00 | 0.00 | 0.00 | 67 | 1011.2 |
| 20260505004555 | 69 | 200 | 2.6 | 10.4 | 0.00 | 0.00 | 0.00 | 66 | 1011.3 |
| 20260505003106 | 68 | 194 | 4.3 | 9.6 | 0.00 | 0.00 | 0.00 | 66 | 1011.4 |
| 20260505001611 | 69 | 238 | 3.5 | 8.7 | 0.00 | 0.00 | 0.00 | 65 | 1011.4 |
| 20260505000131 | 68 | 177 | 3.5 | 11.3 | 0.00 | 0.00 | 0.00 | 64 | 1011.5 |
| 20260504234610 | 69 | 188 | 3.5 | 11.3 | 0.00 | 0.00 | 0.00 | 66 | 1011.4 |
| 20260504233106 | 68 | 167 | 4.3 | 12.2 | 0.00 | 0.00 | 0.00 | 66 | 1011.5 |
| 20260504231553 | 68 | 236 | 4.3 | 10.4 | 0.00 | 0.00 | 0.00 | 65 | 1011.7 |
| 20260504230051 | 68 | 229 | 5.2 | 10.4 | 0.00 | 0.00 | 0.00 | 65 | 1011.8 |
| 20260504224606 | 67 | 171 | 3.5 | 8.7 | 0.00 | 0.00 | 0.00 | 66 | 1011.9 |
| 20260504223051 | 67 | 192 | 2.6 | 7.8 | 0.00 | 0.00 | 0.00 | 67 | 1012.0 |
| 20260504221555 | 67 | 180 | 4.3 | 9.6 | 0.00 | 0.00 | 0.00 | 68 | 1012.1 |
| 20260504220058 | 66 | 186 | 6.1 | 9.6 | 0.00 | 0.00 | 0.00 | 68 | 1012.2 |
| 20260504214555 | 66 | 226 | 6.1 | 11.3 | 0.00 | 0.00 | 0.00 | 68 | 1012.3 |
| 20260504213112 | 65 | 175 | 3.5 | 7.8 | 0.00 | 0.00 | 0.00 | 69 | 1012.6 |
| 20260504211549 | 64 | 200 | 5.2 | 11.3 | 0.00 | 0.00 | 0.00 | 73 | 1012.8 |
| 20260504210053 | 63 | 228 | 4.3 | 9.6 | 0.00 | 0.00 | 0.00 | 71 | 1013.1 |
| 20260504204557 | 63 | 206 | 1.7 | 10.4 | 0.00 | 0.00 | 0.00 | 73 | 1013.3 |
| 20260504203112 | 62 | 150 | 4.3 | 8.7 | 0.00 | 0.00 | 0.00 | 71 | 1013.3 |
| 20260504201551 | 61 | 239 | 4.3 | 9.6 | 0.00 | 0.00 | 0.00 | 73 | 1013.5 |
| 20260504200053 | 61 | 200 | 2.6 | 7.8 | 0.00 | 0.00 | 0.00 | 74 | 1013.5 |
| 20260504194601 | 60 | 133 | 3.5 | 8.7 | 0.00 | 0.00 | 0.00 | 79 | 1013.6 |
| 20260504193100 | 59 | 223 | 4.3 | 12.2 | 0.00 | 0.00 | 0.00 | 76 | 1013.5 |